Flag Weather past 2 weeks in Szeged, Hungary

Now
33 °F

Overcast.


Feels Like: 33 °F
Forecast: 31 / 42 °F
Wind: No wind

Location: Szeged

Current Time: Nov 24, 2014 at 6:43:10 AM

Latest Report: Nov 24, 2014 at 6:00 AM


Visibility: 5 mi

Pressure: 30.39 "Hg

Humidity: 95%

Dew point: 32 °F

Location of SzegedLocation

Historic Weather in Szeged — Graph

°F

Szeged temperature yesterday

Maximum temperature yesterday: 47 °F (at 2:00 PM)
Minimum temperature yesterday: 39 °F (at 6:00 AM)
Average temperature yesterday: 42 °F

Past Weeks' High & Low Weather Summary

 TemperatureHumidityPressure
High63 °F (Nov 10, 2:00 PM)97% (Nov 9, 6:00 AM)30.45 "Hg (Nov 9, 6:00 AM)
Low33 °F (Nov 24, 5:00 AM)53% (Nov 23, 2:00 PM)29.81 "Hg (Nov 18, 8:00 AM)
Average47 °F84%30.06 "Hg
* Reported Nov 9 5:00 AM — Nov 24 5:00 AM, Szeged, Weather by CustomWeather, © 2014

Note: Actual official high and low records may vary slightly from our data, if they occured in-between our weather recording intervals... More about our weather records

Advertising

Szeged weather history for previous 24 hours

 ConditionsComfort  
Time TempWeatherWind HumidityBarometerVisibility
5:00 AM
Nov 24
33 °FPassing clouds.1 mph95%30.39 "Hg5 mi
4:00 AM34 °FPassing clouds.1 mph94%30.39 "Hg5 mi
3:00 AM36 °FOvercast.1 mph92%30.41 "Hg7 mi
2:00 AM38 °FOvercast.2 mph87%30.42 "Hg7 mi
1:00 AM41 °FOvercast.No wind80%30.41 "Hg7 mi
12:00 AM40 °FOvercast.No wind81%30.42 "Hg7 mi
11:00 PM
Nov 23
42 °FOvercast.1 mph78%30.44 "Hg7 mi
10:00 PM42 °FOvercast.1 mph78%30.44 "Hg9 mi
9:00 PM42 °FOvercast.No wind80%30.44 "Hg9 mi
8:00 PM42 °FOvercast.1 mph71%30.43 "Hg9 mi
7:00 PM42 °FOvercast.1 mph72%30.42 "Hg9 mi
6:00 PM43 °FOvercast.1 mph68%30.43 "Hg7 mi
5:00 PM43 °FOvercast.2 mph66%30.43 "Hg7 mi
4:00 PM44 °FOvercast.2 mph62%30.43 "Hg7 mi
3:00 PM46 °FOvercast.3 mph58%30.43 "Hg9 mi
2:00 PM47 °FOvercast.1 mph53%30.42 "Hg9 mi
1:00 PM46 °FOvercast.1 mph55%30.44 "Hg9 mi
12:00 PM46 °FOvercast.2 mph59%30.45 "Hg9 mi
11:00 AM45 °FOvercast.1 mph75%30.45 "Hg6 mi
10:00 AM44 °FOvercast.1 mph83%30.45 "Hg5 mi
9:00 AM42 °FOvercast.No wind89%30.44 "Hg4 mi
8:00 AM40 °FOvercast.1 mph92%30.43 "Hg4 mi
7:00 AM39 °FOvercast.No wind91%30.41 "Hg4 mi
6:00 AM39 °FOvercast.No wind91%30.41 "Hg6 mi
Weather by CustomWeather, © 2014

See weather overviewHow to use our weather pages